Location: Darmstadt
(49.8706°N, 8.6494°E)
Time: 07:22:02
(UTC+01:00)

Cosmos 2360 - Pass Details

Date: 31 October 2020
Orbit: 848 x 854 km, 70.8° (Epoch: 03 December)

Event Time Altitude Azimuth Distance (km) Brightness Sun altitude
Rises 18:28:50 0° 190° (S) 3,410 7.6 -14.1°
Reaches altitude 10° 18:31:19 10° 186° (S) 2,478 6.8 -14.5°
Maximum altitude 18:36:49 52° 111° (ESE) 1,057 4.4 -15.4°
Enters shadow 18:42:05 11° 38° (NE) 2,395 6.2 -16.3°
